User: anonymous   Login
Location: Unspecified
(0.0000°N, 0.0000°E)
Time: 21:26:00
(UTC+00:00)
Language:

STSS DEMO 2 (USA 209) - Orbit

View from above orbital plane
View from above orbital plane
View from above satellite
View from above satellite

Ground track
Ground track

The orbit data is extracted from the following two-line orbital elements,

1 35938U 09052B   16033.82902102 0.00000000  00000-0  00000-0 0    04
2 35938  57.9956 296.7626 0017152 152.6914 207.3086 12.79149855    00
Epoch (UTC): 02 February 2016 19:53:47
Eccentricity: 0.0017152
inclination: 57.9956°
perigee height: 1331 km
apogee height: 1358 km
right ascension of ascending node: 296.7626°
argument of perigee: 152.6914°
revolutions per day: 12.79149855
mean anomaly at epoch: 207.3086°
orbit number at epoch: 0

The dashed part of the orbit path shows where the satellite is in the earth's shadow,  

DLR